User: anonymous   Login
Location: Unspecified
(0.0000°N, 0.0000°E)
Time: 12:25:46
(UTC+00:00)
Language:

COSMOS 2429 - Orbit

View from above orbital plane
View from above orbital plane
View from above satellite
View from above satellite

Ground track
Ground track

The orbit data is extracted from the following two-line orbital elements,

1 32052U 07038A   18347.78680168 +.00000026 +00000-0 +11483-4 0  9996
2 32052 082.9822 066.5644 0037710 334.1246 025.8023 13.74909494564787
Epoch (UTC): 13 December 2018 18:52:59
Eccentricity: 0.0037710
inclination: 82.9822°
perigee height: 954 km
apogee height: 1010 km
right ascension of ascending node: 66.5644°
argument of perigee: 334.1246°
revolutions per day: 13.74909494
mean anomaly at epoch: 25.8023°
orbit number at epoch: 56478

The dashed part of the orbit path shows where the satellite is in the earth's shadow,  

DLR